,Output(kWh),Demand(kWh),Import(kWh),Export(kWh),HW(kWh),HWPV(kWh),Output(kWh/d),Demand(kWh/d),Import(kWh/d),Export(kWh/d),HW(kWh/d),HWPV(kWh/d)
20/07/2015,0.202,0.203,0.003,0.002,0.03,0.03,0.202,0.203,0.003,0.002,0.03,0.03
21/07/2015,1.24,3.648,2.551,0.143,0.3,0.195,1.038,3.445,2.548,0.141,0.27,0.165
22/07/2015,7.651,10.33,5.233,2.549,3.025,2.79,6.411,6.682,2.682,2.406,2.725,2.595
23/07/2015,11.03,18.31,10.71,3.436,4.014,3.756,3.379,7.98,5.477,0.887,0.989,0.966
24/07/2015,16.54,28.96,16.62,4.194,5.544,5.255,5.51,10.65,5.91,0.758,1.53,1.499
25/07/2015,17.43,34.56,21.36,4.23,5.544,5.255,0.89,5.6,4.74,0.036,0,0
26/07/2015,23.66,43.51,25.88,6.03,7.165,6.8,6.23,8.95,4.52,1.8,1.621,1.545
27/07/2015,25.69,49.66,30.17,6.198,7.234,6.858,2.03,6.15,4.29,0.168,0.069,0.058
28/07/2015,29.47,57.77,35.11,6.787,8.112,7.719,3.78,8.11,4.94,0.589,0.878,0.861
29/07/2015,34.37,70.05,43.39,7.693,9.944,9.518,4.9,12.28,8.28,0.906,1.832,1.799
30/07/2015,38.65,79.98,49.67,8.326,11.22,10.79,4.28,9.93,6.28,0.633,1.276,1.272
31/07/2015,45.22,88.57,53.48,10.11,13.49,13,6.57,8.59,3.81,1.784,2.27,2.21
01/08/2015,50.01,96.84,58.34,11.5,14.56,14.01,4.79,8.27,4.86,1.39,1.07,1.01
02/08/2015,55.42,107.38,64.43,12.45,16.99,16.31,5.41,10.54,6.09,0.95,2.43,2.3
03/08/2015,63.5,117.64,69.31,15.13,18.43,17.72,8.08,10.26,4.88,2.68,1.44,1.41
04/08/2015,68.94,130.66,77.78,16.03,20.11,19.35,5.44,13.02,8.47,0.9,1.68,1.63
05/08/2015,73.78,139.58,82.87,17.05,21.73,20.94,4.84,8.92,5.09,1.02,1.62,1.59
06/08/2015,77.29,149.65,90.03,17.64,22.88,21.97,3.51,10.07,7.16,0.59,1.15,1.03
07/08/2015,83.67,160.48,95.56,18.72,24.56,23.59,6.38,10.83,5.53,1.08,1.68,1.62
08/08/2015,89.2,166.85,98.28,20.62,25.63,24.62,5.53,6.37,2.72,1.9,1.07,1.03
09/08/2015,95.17,177.3,104.58,22.46,27.1,26,5.97,10.45,6.3,1.84,1.47,1.38
10/08/2015,102.31,189.46,111.76,24.7,29.37,28.08,7.14,12.16,7.18,2.24,2.27,2.08
11/08/2015,105.96,196.19,115.55,25.51,30.13,28.83,3.65,6.73,3.79,0.81,0.76,0.75
12/08/2015,109.64,203.53,119.75,26.15,31.09,29.8,3.68,7.34,4.2,0.64,0.96,0.97
13/08/2015,115.45,212.99,125.05,27.81,34.34,33.02,5.81,9.46,5.3,1.66,3.25,3.22
14/08/2015,116.82,220.43,131.21,27.97,34.5,33.17,1.37,7.44,6.16,0.16,0.16,0.15
15/08/2015,118.35,228.66,137.95,28.06,34.53,33.2,1.53,8.23,6.74,0.09,0.03,0.03
16/08/2015,122.16,238.67,144.63,28.59,35.77,34.29,3.81,10.01,6.68,0.53,1.24,1.09
17/08/2015,126.74,245.23,147.65,29.64,37.57,36.05,4.58,6.56,3.02,1.05,1.8,1.76
18/08/2015,130.87,253.25,152.48,30.63,39.25,37.68,4.13,8.02,4.83,0.99,1.68,1.63
19/08/2015,133.27,260.93,158.19,31.08,39.46,37.88,2.4,7.68,5.71,0.45,0.21,0.2
20/08/2015,135.52,267.47,162.91,31.51,39.75,38.17,2.25,6.54,4.72,0.43,0.29,0.29
21/08/2015,138.92,274.82,167.45,32.12,40.51,38.9,3.4,7.35,4.54,0.61,0.76,0.73
22/08/2015,146.49,284.79,172.41,34.69,41.73,40.02,7.57,9.97,4.96,2.57,1.22,1.12
23/08/2015,152.32,291.66,175.67,36.94,42.3,40.55,5.83,6.87,3.26,2.25,0.57,0.53
24/08/2015,156.83,303.1,183.72,38,43.66,41.7,4.51,11.44,8.05,1.06,1.36,1.15
25/08/2015,158.23,308.86,188.34,38.19,43.76,41.79,1.4,5.76,4.62,0.19,0.1,0.09
26/08/2015,160.8,318.37,195.58,38.48,43.91,41.94,2.57,9.51,7.24,0.29,0.15,0.15
27/08/2015,165,328.07,202.35,39.71,45.88,43.64,4.2,9.7,6.77,1.23,1.97,1.7
28/08/2015,169.66,335.78,206.67,40.98,47.43,45.17,4.66,7.71,4.32,1.27,1.55,1.53
29/08/2015,174.52,343.63,211.36,42.68,48.6,46.27,4.86,7.85,4.69,1.7,1.17,1.1
30/08/2015,177.48,351.86,217.15,43.19,49.11,46.77,2.96,8.23,5.79,0.51,0.51,0.5
31/08/2015,180.06,358.76,221.93,43.63,49.45,47.11,2.58,6.9,4.78,0.44,0.34,0.34
01/09/2015,180.86,366.93,229.33,43.65,49.46,47.12,0.8,8.17,7.4,0.02,0.01,0.01
02/09/2015,185.86,377.85,236.7,45.12,50.62,48.25,5,10.92,7.37,1.47,1.16,1.13
03/09/2015,190.58,385.5,240.59,46.03,52.31,49.91,4.72,7.65,3.89,0.91,1.69,1.66
04/09/2015,193.49,392.08,244.8,46.55,52.94,50.53,2.91,6.58,4.21,0.52,0.63,0.62
05/09/2015,195.91,400.9,251.52,46.83,53.37,50.93,2.42,8.82,6.72,0.28,0.43,0.4
06/09/2015,198.69,407.61,255.85,47.24,53.91,51.47,2.78,6.71,4.33,0.41,0.54,0.54
07/09/2015,205.02,416.47,260.57,49.42,55.02,52.51,6.33,8.86,4.72,2.18,1.11,1.04
08/09/2015,210.58,427.38,267.69,51.15,56.87,54.26,5.56,10.91,7.12,1.73,1.85,1.75
09/09/2015,214.25,436.85,274.14,51.79,58.26,55.64,3.67,9.47,6.45,0.64,1.39,1.38
10/09/2015,218.3,452.97,286.85,52.39,59.64,56.87,4.05,16.12,12.71,0.6,1.38,1.23
11/09/2015,224.88,468.97,298.78,54.91,60.19,57.38,6.58,16,11.93,2.52,0.55,0.51
12/09/2015,230.39,474.89,300.81,56.64,62.27,59.44,5.51,5.92,2.03,1.73,2.08,2.06
13/09/2015,235.48,480.27,302.8,58.43,64.26,61.36,5.09,5.38,1.99,1.79,1.99,1.92
14/09/2015,239.4,485.15,304.55,59.31,65.96,63.04,3.92,4.88,1.75,0.88,1.7,1.68
15/09/2015,243.5,490.06,306.42,60.44,67.81,64.84,4.1,4.91,1.87,1.13,1.85,1.8
16/09/2015,246.84,494.75,308.52,61.25,69.34,66.35,3.34,4.69,2.1,0.81,1.53,1.51
17/09/2015,247.77,501.29,314.22,61.33,69.36,66.37,0.93,6.54,5.7,0.08,0.02,0.02
18/09/2015,251.88,516.49,325.79,61.8,71.35,68.31,4.11,15.2,11.57,0.47,1.99,1.94
19/09/2015,256.02,526.97,332.41,62.09,72.25,69.21,4.14,10.48,6.62,0.29,0.9,0.9
20/09/2015,261.66,539.01,339.23,62.51,74.1,70.95,5.64,12.04,6.82,0.42,1.85,1.74
21/09/2015,266.43,548.37,344.32,63.02,76.18,73,4.77,9.36,5.09,0.51,2.08,2.05
22/09/2015,267.91,560.6,355.15,63.1,76.2,73.02,1.48,12.23,10.83,0.08,0.02,0.02
23/09/2015,271.09,568.38,360.32,63.7,77.44,74.25,3.18,7.78,5.17,0.6,1.24,1.23
24/09/2015,273.38,575.94,365.9,64,77.66,74.46,2.29,7.56,5.58,0.3,0.22,0.21
25/09/2015,277.23,583.45,370.56,65,79.06,75.82,3.85,7.51,4.66,1,1.4,1.36
26/09/2015,281.16,599.27,382.84,65.42,79.58,76.31,3.93,15.82,12.28,0.42,0.52,0.49
27/09/2015,284.21,613.69,394.33,65.52,79.96,76.68,3.05,14.42,11.49,0.1,0.38,0.37
28/09/2015,288.41,615.09,394.67,68.86,81.23,77.95,4.2,1.4,0.34,3.34,1.27,1.27
29/09/2015,293,616.11,394.71,72.63,83.8,80.51,4.59,1.02,0.04,3.77,2.57,2.56
30/09/2015,297.49,617.37,394.75,76.12,87.03,83.75,4.49,1.26,0.04,3.49,3.23,3.24
01/10/2015,301.99,618.27,394.76,79.89,88.94,85.65,4.5,0.9,0.01,3.77,1.91,1.9
02/10/2015,306.29,619.21,394.76,83.43,91.12,87.83,4.3,0.94,0,3.54,2.18,2.18
03/10/2015,309.87,620.07,394.8,86.42,92.95,89.66,3.58,0.86,0.04,2.99,1.83,1.83
04/10/2015,313.21,621.34,394.8,88.77,96.92,93.63,3.34,1.27,0,2.35,3.97,3.97
05/10/2015,316.69,622.5,394.84,91.34,100.08,96.79,3.48,1.16,0.04,2.57,3.16,3.16
06/10/2015,317.59,622.9,394.88,91.96,102.53,99.24,0.9,0.4,0.04,0.62,2.45,2.45
07/10/2015,320.02,623.74,394.91,93.75,104.97,101.68,2.43,0.84,0.03,1.79,2.44,2.44
08/10/2015,320.99,624.17,394.95,94.45,108.07,104.78,0.97,0.43,0.04,0.7,3.1,3.1
09/10/2015,322.87,624.7,394.98,95.96,110.04,106.75,1.88,0.53,0.03,1.51,1.97,1.97
10/10/2015,325.17,625.12,394.99,97.96,111.11,107.81,2.3,0.42,0.01,2,1.07,1.06
11/10/2015,327.12,626.12,395.02,99.08,114.95,111.65,1.95,1,0.03,1.12,3.84,3.84
12/10/2015,330.01,627.42,395.06,100.97,117.2,113.9,2.89,1.3,0.04,1.89,2.25,2.25
13/10/2015,333.08,628.25,395.06,103.28,119.33,116.02,3.07,0.83,0,2.31,2.13,2.12
14/10/2015,334.97,629.22,395.08,104.4,122.74,119.43,1.89,0.97,0.02,1.12,3.41,3.41
15/10/2015,336.75,630.06,395.14,105.52,126.66,123.33,1.78,0.84,0.06,1.12,3.92,3.9
16/10/2015,337.91,630.65,395.15,106.25,129.11,125.79,1.16,0.59,0.01,0.73,2.45,2.46
17/10/2015,338.86,631.12,395.2,106.89,130.79,127.46,0.95,0.47,0.05,0.64,1.68,1.67
18/10/2015,339.96,631.82,395.21,107.52,133.03,129.7,1.1,0.7,0.01,0.63,2.24,2.24
19/10/2015,341.92,632.93,395.3,108.62,137.02,133.7,1.96,1.11,0.09,1.1,3.99,4
20/10/2015,342.59,633.22,395.3,109.06,139.29,135.96,0.67,0.29,0,0.44,2.27,2.26
21/10/2015,345.7,634.27,395.35,111.35,142.83,139.49,3.11,1.05,0.05,2.29,3.54,3.53
22/10/2015,346.3,635.19,396.03,111.78,144.43,141.1,0.6,0.92,0.68,0.43,1.6,1.61
23/10/2015,347.37,636.28,396.51,112.41,147.3,143.97,1.07,1.09,0.48,0.63,2.87,2.87
24/10/2015,348.54,639.56,398.94,112.81,147.7,144.36,1.17,3.28,2.43,0.4,0.4,0.39
25/10/2015,349.12,643.6,402.45,112.99,147.8,144.47,0.58,4.04,3.51,0.18,0.1,0.11
26/10/2015,350.87,656.52,413.93,113.39,148.77,145.43,1.75,12.92,11.48,0.4,0.97,0.96
27/10/2015,352.4,664.54,420.71,113.82,149.45,146.06,1.53,8.02,6.78,0.43,0.68,0.63
28/10/2015,354.46,668.06,422.69,114.47,150.66,147.22,2.06,3.52,1.98,0.65,1.21,1.16
29/10/2015,356.5,671.83,425.65,115.8,153.26,149.82,2.04,3.77,2.96,1.33,2.6,2.6
30/10/2015,357.55,676.37,429.48,116.24,155.9,152.45,1.05,4.54,3.83,0.44,2.64,2.63
31/10/2015,358.55,684.84,437.17,116.5,156.26,152.81,1,8.47,7.69,0.26,0.36,0.36
01/11/2015,360.93,700.29,451.2,117.37,157.11,153.63,2.38,15.45,14.03,0.87,0.85,0.82
02/11/2015,362.13,708.44,458.44,117.81,159.04,155.56,1.2,8.15,7.24,0.44,1.93,1.93
03/11/2015,362.94,717.65,466.97,118.15,160.08,156.6,0.81,9.21,8.53,0.34,1.04,1.04
04/11/2015,363.65,730.54,479.26,118.32,160.27,156.79,0.71,12.89,12.29,0.17,0.19,0.19
05/11/2015,364.94,737.55,485.34,118.88,163.48,160.01,1.29,7.01,6.08,0.56,3.21,3.22
06/11/2015,365.3,744.75,492.33,119.02,163.75,160.28,0.36,7.2,6.99,0.14,0.27,0.27
07/11/2015,365.89,749.1,496.01,119.14,163.82,160.34,0.59,4.35,3.68,0.12,0.07,0.06
08/11/2015,366.13,756.94,503.54,119.15,163.82,160.34,0.24,7.84,7.53,0.01,0,0
09/11/2015,366.63,765.02,511.36,119.31,164.12,160.64,0.5,8.08,7.82,0.16,0.3,0.3
10/11/2015,367.47,772.94,518.66,119.53,164.36,160.88,0.84,7.92,7.3,0.22,0.24,0.24
11/11/2015,367.89,781.7,527.03,119.73,165.24,161.75,0.42,8.76,8.37,0.2,0.88,0.87
12/11/2015,368.73,783.29,528.04,120.21,166.22,162.74,0.84,1.59,1.01,0.48,0.98,0.99
13/11/2015,369.56,786.93,531.25,120.66,168.38,164.89,0.83,3.64,3.21,0.45,2.16,2.15
14/11/2015,370.75,788.67,532.46,121.44,170.66,167.16,1.19,1.74,1.21,0.78,2.28,2.27
15/11/2015,371.04,800.03,543.53,121.52,170.67,167.17,0.29,11.36,11.07,0.08,0.01,0.01
16/11/2015,371.74,808.69,551.68,121.76,170.88,167.38,0.7,8.66,8.15,0.24,0.21,0.21
17/11/2015,373.45,816.13,557.75,122.02,171.39,167.86,1.71,7.44,6.07,0.26,0.51,0.48
18/11/2015,373.92,824.68,565.75,122.02,171.39,167.86,0.47,8.55,8,0,0,0
19/11/2015,374.95,829.7,569.91,122.16,171.54,168,1.03,5.02,4.16,0.14,0.15,0.14
20/11/2015,375.37,836.06,575.75,122.16,171.54,168,0.42,6.36,5.84,0,0,0
21/11/2015,376.29,843.28,582.12,122.2,171.58,168.05,0.92,7.22,6.37,0.04,0.04,0.05
22/11/2015,378.05,850.7,588.05,122.42,172.55,168.99,1.76,7.42,5.93,0.22,0.97,0.94
23/11/2015,378.91,870.04,606.33,122.42,172.55,168.99,0.86,19.34,18.28,0,0,0
24/11/2015,380.15,881.34,616.43,122.47,172.57,169.01,1.24,11.3,10.1,0.05,0.02,0.02
25/11/2015,380.45,898.32,633.08,122.47,172.57,169.01,0.3,16.98,16.65,0,0,0
26/11/2015,381.06,915.63,649.81,122.47,172.57,169.01,0.61,17.31,16.73,0,0,0
27/11/2015,381.58,916.96,650.96,122.85,173.43,169.87,0.52,1.33,1.15,0.38,0.86,0.86
28/11/2015,382.09,917.24,650.99,123.17,174.84,171.27,0.51,0.28,0.03,0.32,1.41,1.4
29/11/2015,382.66,917.57,651.02,123.57,175.36,171.8,0.57,0.33,0.03,0.4,0.52,0.53
30/11/2015,382.93,917.72,651.08,123.78,175.68,172.12,0.27,0.15,0.06,0.21,0.32,0.32
01/12/2015,383.25,917.85,651.14,124.05,175.92,172.36,0.32,0.13,0.06,0.27,0.24,0.24
02/12/2015,384.11,918.29,651.15,124.56,176.85,173.28,0.86,0.44,0.01,0.51,0.93,0.92
03/12/2015,385.06,918.86,651.24,125.1,177.98,174.41,0.95,0.57,0.09,0.54,1.13,1.13
04/12/2015,385.34,918.95,651.3,125.37,178.33,174.76,0.28,0.09,0.06,0.27,0.35,0.35
05/12/2015,386.55,919.67,651.36,126.01,179.94,176.36,1.21,0.72,0.06,0.64,1.61,1.6
06/12/2015,386.75,919.79,651.48,126.2,180,176.42,0.2,0.12,0.12,0.19,0.06,0.06
07/12/2015,387.04,919.9,651.54,126.45,180.27,176.69,0.29,0.11,0.06,0.25,0.27,0.27
08/12/2015,387.58,920.24,651.6,126.8,181.04,177.45,0.54,0.34,0.06,0.35,0.77,0.76
09/12/2015,388.43,920.61,651.61,127.33,182.11,178.52,0.85,0.37,0.01,0.53,1.07,1.07
10/12/2015,389.26,921.14,651.74,127.81,182.95,179.36,0.83,0.53,0.13,0.48,0.84,0.84
11/12/2015,390.06,921.65,651.82,128.29,183.95,180.37,0.8,0.51,0.08,0.48,1,1.01
12/12/2015,390.55,924.47,654.55,128.66,184.45,180.86,0.49,2.82,2.73,0.37,0.5,0.49
13/12/2015,390.76,926.31,656.3,128.78,184.48,180.89,0.21,1.84,1.75,0.12,0.03,0.03
14/12/2015,391.02,936.86,666.69,128.87,184.52,180.93,0.26,10.55,10.39,0.09,0.04,0.04
15/12/2015,391.51,948.88,678.29,128.94,184.6,181.01,0.49,12.02,11.6,0.07,0.08,0.08
16/12/2015,391.58,950.76,680.18,129.02,184.64,181.05,0.07,1.88,1.89,0.08,0.04,0.04
17/12/2015,392.12,961.63,690.68,129.27,185.32,181.73,0.54,10.87,10.5,0.25,0.68,0.68
18/12/2015,392.58,965.7,694.53,129.59,185.75,182.16,0.46,4.07,3.85,0.32,0.43,0.43
19/12/2015,393.2,970.39,698.76,129.79,186.08,182.49,0.62,4.69,4.23,0.2,0.33,0.33
20/12/2015,393.89,970.83,698.81,130.23,187.51,183.92,0.69,0.44,0.05,0.44,1.43,1.43
21/12/2015,394.51,975.47,702.91,130.37,187.57,183.98,0.62,4.64,4.1,0.14,0.06,0.06
22/12/2015,394.73,987.3,714.54,130.37,187.57,183.98,0.22,11.83,11.63,0,0,0
23/12/2015,395.19,997.9,724.67,130.39,187.57,183.98,0.46,10.6,10.13,0.02,0,0
24/12/2015,395.82,1006,732.11,130.45,187.66,184.07,0.63,8.1,7.44,0.06,0.09,0.09
25/12/2015,396.34,1032,757.66,130.45,187.66,184.07,0.52,26,25.55,0,0,0
26/12/2015,396.55,1059,784.64,130.45,187.66,184.07,0.21,27,26.98,0,0,0
27/12/2015,396.85,1068,792.89,130.45,187.66,184.07,0.3,9,8.25,0,0,0
28/12/2015,396.88,1074,799.04,130.45,187.66,184.07,0.03,6,6.15,0,0,0
29/12/2015,397.44,1079,803.99,130.45,187.66,184.07,0.56,5,4.95,0,0,0
30/12/2015,398.01,1085,809.09,130.5,187.72,184.12,0.57,6,5.1,0.05,0.06,0.05
31/12/2015,398.33,1093,816.89,130.5,187.72,184.12,0.32,8,7.8,0,0,0
01/01/2016,399.17,1111,834.17,130.54,187.77,184.18,0.84,18,17.28,0.04,0.05,0.06
02/01/2016,399.54,1126,848.08,130.54,187.77,184.18,0.37,15,13.91,0,0,0
03/01/2016,399.63,1137,859.39,130.54,187.77,184.18,0.09,11,11.31,0,0,0
04/01/2016,399.65,1152,874.65,130.54,187.77,184.18,0.02,15,15.26,0,0,0
05/01/2016,400.44,1167,888.67,130.56,187.83,184.23,0.79,15,14.02,0.02,0.06,0.05
06/01/2016,401.26,1179,899.33,130.56,187.83,184.23,0.82,12,10.66,0,0,0
07/01/2016,401.81,1193,912.86,130.56,187.83,184.23,0.55,14,13.53,0,0,0
08/01/2016,402.7,1209,928.39,130.65,188.02,184.42,0.89,16,15.53,0.09,0.19,0.19
09/01/2016,403.76,1220,938.08,130.73,188.28,184.68,1.06,11,9.69,0.08,0.26,0.26
10/01/2016,404.21,1229,946.12,130.73,188.28,184.68,0.45,9,8.04,0,0,0
11/01/2016,405.17,1245,961.71,130.76,188.31,184.71,0.96,16,15.59,0.03,0.03,0.03
12/01/2016,405.75,1258,974.05,130.76,188.31,184.71,0.58,13,12.34,0,0,0
13/01/2016,406.09,1272,987.51,130.76,188.31,184.71,0.34,14,13.46,0,0,0
14/01/2016,407.24,1292,1007,130.79,188.38,184.77,1.15,20,19.49,0.03,0.07,0.06
15/01/2016,407.76,1318,1032,130.79,188.38,184.77,0.52,26,25,0,0,0
16/01/2016,408.71,1327,1041,130.9,188.74,185.12,0.95,9,9,0.11,0.36,0.35
17/01/2016,410.04,1335,1047,130.99,189.22,185.6,1.33,8,6,0.09,0.48,0.48
18/01/2016,410.36,1345,1056,130.99,189.22,185.6,0.32,10,9,0,0,0
19/01/2016,411.26,1354,1064,131,189.22,185.6,0.9,9,8,0.01,0,0
20/01/2016,412.14,1365,1075,131.06,189.35,185.73,0.88,11,11,0.06,0.13,0.13
21/01/2016,413.12,1380,1089,131.11,189.42,185.76,0.98,15,14,0.05,0.07,0.03
22/01/2016,413.97,1390,1099,131.11,189.42,185.76,0.85,10,10,0,0,0
23/01/2016,414.44,1408,1116,131.11,189.42,185.76,0.47,18,17,0,0,0
24/01/2016,415.51,1415,1120,131.28,189.44,185.77,1.07,7,4,0.17,0.02,0.01
25/01/2016,416.49,1421,1123,131.45,189.53,185.86,0.98,6,3,0.17,0.09,0.09
26/01/2016,417.32,1428,1126,131.56,189.55,185.88,0.83,7,3,0.11,0.02,0.02
27/01/2016,417.8,1434,1130,131.58,189.55,185.88,0.48,6,4,0.02,0,0
28/01/2016,418.03,1440,1133,131.58,189.55,185.88,0.23,6,3,0,0,0
29/01/2016,419.31,1447,1137,131.72,190.05,186.38,1.28,7,4,0.14,0.5,0.5
30/01/2016,420.1,1453,1142,131.82,190.15,186.48,0.79,6,5,0.1,0.1,0.1
31/01/2016,422.52,1461,1145,132.31,190.88,187.19,2.42,8,3,0.49,0.73,0.71
01/02/2016,423.51,1467,1149,132.45,191.03,187.34,0.99,6,4,0.14,0.15,0.15
02/02/2016,424.46,1474,1152,132.6,191.06,187.37,0.95,7,3,0.15,0.03,0.03
03/02/2016,426.99,1482,1157,133.22,191.87,188.14,2.53,8,5,0.62,0.81,0.77
04/02/2016,428.36,1489,1160,133.38,192.11,188.37,1.37,7,3,0.16,0.24,0.23
05/02/2016,429.8,1495,1163,133.63,192.3,188.56,1.44,6,3,0.25,0.19,0.19
06/02/2016,430.53,1502,1166,133.71,192.31,188.57,0.73,7,3,0.08,0.01,0.01
07/02/2016,430.83,1507,1170,133.71,192.31,188.57,0.3,5,4,0,0,0
08/02/2016,433.31,1519,1178,133.94,193,189.24,2.48,12,8,0.23,0.69,0.67
09/02/2016,434.48,1525,1182,134.16,193.13,189.36,1.17,6,4,0.22,0.13,0.12
10/02/2016,437.12,1534,1186,134.9,193.78,189.99,2.64,9,4,0.74,0.65,0.63
11/02/2016,438.42,1545,1194,135.12,194.04,190.25,1.3,11,8,0.22,0.26,0.26
12/02/2016,440.64,1560,1208,135.69,194.52,190.72,2.22,15,14,0.57,0.48,0.47
13/02/2016,441.48,1572,1218,135.86,194.58,190.77,0.84,12,10,0.17,0.06,0.05
14/02/2016,441.87,1583,1228,135.88,194.58,190.77,0.39,11,10,0.02,0,0
15/02/2016,443.73,1602,1245,136.06,194.79,190.96,1.86,19,17,0.18,0.21,0.19
16/02/2016,445.99,1609,1250,136.56,195.84,191.97,2.26,7,5,0.5,1.05,1.01
17/02/2016,449.27,1617,1255,137.48,196.78,192.91,3.28,8,5,0.92,0.94,0.94
18/02/2016,449.98,1623,1259,137.58,196.79,192.91,0.71,6,4,0.1,0.01,0
19/02/2016,452.71,1633,1266,138.32,197.76,193.84,2.73,10,7,0.74,0.97,0.93
20/02/2016,454.81,1640,1271,138.79,198.52,194.59,2.1,7,5,0.47,0.76,0.75
21/02/2016,455.69,1654,1284,138.93,198.59,194.65,0.88,14,13,0.14,0.07,0.06
22/02/2016,456.91,1664,1292,139.09,198.65,194.71,1.22,10,8,0.16,0.06,0.06
23/02/2016,458.76,1670,1296,139.43,199.21,195.27,1.85,6,4,0.34,0.56,0.56
24/02/2016,461.09,1678,1302,140.03,199.84,195.88,2.33,8,6,0.6,0.63,0.61
25/02/2016,463.72,1687,1308,140.62,200.76,196.79,2.63,9,6,0.59,0.92,0.91
26/02/2016,465.87,1694,1313,141.05,201.39,197.4,2.15,7,5,0.43,0.63,0.61
27/02/2016,468.53,1702,1318,141.7,202.51,198.51,2.66,8,5,0.65,1.12,1.11
28/02/2016,469.87,1713,1327,141.79,202.56,198.55,1.34,11,9,0.09,0.05,0.04
29/02/2016,472.19,1721,1333,142.27,203.15,199.11,2.32,8,6,0.48,0.59,0.56
01/03/2016,475.29,1729,1337,142.8,204.49,200.45,3.1,8,4,0.53,1.34,1.34
02/03/2016,476.48,1735,1342,143.03,204.73,200.67,1.19,6,5,0.23,0.24,0.22
03/03/2016,479.19,1742,1346,143.69,205.76,201.67,2.71,7,4,0.66,1.03,1
04/03/2016,481.65,1749,1350,144.25,206.67,202.56,2.46,7,4,0.56,0.91,0.89
05/03/2016,484.6,1757,1356,145.15,207.5,203.36,2.95,8,6,0.9,0.83,0.8
06/03/2016,486.31,1763,1360,145.42,207.72,203.58,1.71,6,4,0.27,0.22,0.22
07/03/2016,488.66,1770,1364,145.96,208.24,204.09,2.35,7,4,0.54,0.52,0.51
08/03/2016,491.65,1778,1369,146.82,209.26,205.06,2.99,8,5,0.86,1.02,0.97
09/03/2016,493.79,1785,1374,147.26,209.88,205.68,2.14,7,5,0.44,0.62,0.62
10/03/2016,495.44,1792,1379,147.59,210.36,206.16,1.65,7,5,0.33,0.48,0.48
11/03/2016,496.89,1799,1384,147.93,210.62,206.41,1.45,7,5,0.34,0.26,0.25
12/03/2016,501.68,1812,1394,149.02,211.22,206.98,4.79,13,10,1.09,0.6,0.57
13/03/2016,506.2,1821,1399,150.06,213.04,208.77,4.52,9,5,1.04,1.82,1.79
14/03/2016,511.3,1833,1405,151.43,213.88,209.58,5.1,12,6,1.37,0.84,0.81
15/03/2016,516.7,1841,1410,153.3,214.89,210.59,5.4,8,5,1.87,1.01,1.01
16/03/2016,517.78,1848,1414,153.42,214.92,210.61,1.08,7,4,0.12,0.03,0.02
17/03/2016,521.01,1855,1418,154.24,216.05,211.71,3.23,7,4,0.82,1.13,1.1
18/03/2016,525.82,1867,1427,155.15,217.23,212.88,4.81,12,9,0.91,1.18,1.17
19/03/2016,526.5,1879,1438,155.15,217.23,212.88,0.68,12,11,0,0,0
20/03/2016,527.95,1892,1450,155.17,217.23,212.88,1.45,13,12,0.02,0,0
21/03/2016,530.17,1909,1465,155.23,217.44,213.08,2.22,17,15,0.06,0.21,0.2
22/03/2016,532.96,1924,1477,155.53,217.8,213.43,2.79,15,12,0.3,0.36,0.35
23/03/2016,537.93,1934,1483,156.88,218.74,214.34,4.97,10,6,1.35,0.94,0.91
24/03/2016,539.68,1947,1494,156.91,218.74,214.34,1.75,13,11,0.03,0,0
25/03/2016,541.61,1959,1504,157.04,218.84,214.44,1.93,12,10,0.13,0.1,0.1
26/03/2016,547.72,1967,1508,159,220.16,215.71,6.11,8,4,1.96,1.32,1.27
27/03/2016,548.91,1974,1513,159.02,220.16,215.71,1.19,7,5,0.02,0,0
28/03/2016,553.3,1981,1517,160.27,221.71,217.17,4.39,7,4,1.25,1.55,1.46
29/03/2016,558.03,1989,1521,161.41,223.36,218.74,4.73,8,4,1.14,1.65,1.57
30/03/2016,560.81,1996,1526,161.83,224.3,219.67,2.78,7,5,0.42,0.94,0.93
31/03/2016,564.94,2007,1533,162.32,225.47,220.81,4.13,11,7,0.49,1.17,1.14
01/04/2016,568.9,2017,1540,163.08,226.45,221.76,3.96,10,7,0.76,0.98,0.95
02/04/2016,573.39,2034,1553,163.55,227.88,223.16,4.49,17,13,0.47,1.43,1.4
03/04/2016,576.83,2046,1562,163.99,228.63,223.9,3.44,12,9,0.44,0.75,0.74
04/04/2016,580.04,2066,1579,164.08,228.73,223.98,3.21,20,17,0.09,0.1,0.08
05/04/2016,583.42,2079,1588,164.34,229.26,224.49,3.38,13,9,0.26,0.53,0.51
06/04/2016,588.82,2091,1596,165.34,231.18,226.21,5.4,12,8,1,1.92,1.72
07/04/2016,594.02,2102,1604,166.44,232.22,227.2,5.2,11,8,1.1,1.04,0.99
08/04/2016,597.62,2116,1614,166.72,232.69,227.64,3.6,14,10,0.28,0.47,0.44
09/04/2016,602.35,2129,1623,167.42,233.39,228.31,4.73,13,9,0.7,0.7,0.67
10/04/2016,606.02,2141,1632,167.98,234.32,229.23,3.67,12,9,0.56,0.93,0.92
11/04/2016,611.43,2157,1643,168.62,235.61,230.51,5.41,16,11,0.64,1.29,1.28
12/04/2016,613.82,2171,1655,168.79,235.65,230.55,2.39,14,12,0.17,0.04,0.04
13/04/2016,620.31,2180,1659,170.58,237.46,232.25,6.49,9,4,1.79,1.81,1.7
14/04/2016,625.87,2189,1664,171.98,238.42,233.18,5.56,9,5,1.4,0.96,0.93
15/04/2016,632.25,2200,1670,173.38,240.3,235,6.38,11,6,1.4,1.88,1.82
16/04/2016,634.12,2217,1685,173.41,240.31,235.01,1.87,17,15,0.03,0.01,0.01
17/04/2016,638.86,2234,1697,173.67,240.91,235.59,4.74,17,12,0.26,0.6,0.58
18/04/2016,645.09,2250,1709,174.49,241.81,236.39,6.23,16,12,0.82,0.9,0.8
19/04/2016,648.39,2260,1715,174.81,242.16,236.72,3.3,10,6,0.32,0.35,0.33
20/04/2016,655.84,2270,1720,176.96,243.35,237.84,7.45,10,5,2.15,1.19,1.12
21/04/2016,663.47,2283,1728,179.43,244.16,238.61,7.63,13,8,2.47,0.81,0.77
22/04/2016,668.61,2293,1734,180.06,246.01,240.43,5.14,10,6,0.63,1.85,1.82
23/04/2016,670.64,2308,1747,180.09,246.02,240.43,2.03,15,13,0.03,0.01,0
24/04/2016,675.6,2320,1755,181.03,247.35,241.68,4.96,12,8,0.94,1.33,1.25
25/04/2016,679.25,2338,1769,181.23,247.65,241.96,3.65,18,14,0.2,0.3,0.28
26/04/2016,683.52,2351,1778,181.69,248.32,242.59,4.27,13,9,0.46,0.67,0.63
27/04/2016,689.97,2367,1788,182.75,249.62,243.82,6.45,16,10,1.06,1.3,1.23
28/04/2016,695.82,2375,1793,184.86,251.2,245.38,5.85,8,5,2.11,1.58,1.56
29/04/2016,700.83,2382,1796,186.03,253.76,247.9,5.01,7,3,1.17,2.56,2.52
30/04/2016,708.16,2388,1799,188.62,256.36,250.44,7.33,6,3,2.59,2.6,2.54
01/05/2016,714.27,2391,1802,190.55,258.68,252.72,6.11,3,3,1.93,2.32,2.28
02/05/2016,721.57,2396,1805,192.97,261.01,255.02,7.3,5,3,2.42,2.33,2.3
03/05/2016,726.45,2399,1808,193.95,263.36,257.35,4.88,3,3,0.98,2.35,2.33
04/05/2016,731.2,2402,1811,195.04,265.72,259.66,4.75,3,3,1.09,2.36,2.31
05/05/2016,737.92,2406,1814,197.27,267.68,261.61,6.72,4,3,2.23,1.96,1.95
06/05/2016,745.61,2410,1817,199.76,269.62,263.53,7.69,4,3,2.49,1.94,1.92
07/05/2016,752.36,2414,1819,201.37,273.16,267.05,6.75,4,2,1.61,3.54,3.52
08/05/2016,757.41,2417,1822,202.45,275.43,269.3,5.05,3,3,1.08,2.27,2.25
09/05/2016,764.98,2421,1825,205.2,277.07,270.92,7.57,4,3,2.75,1.64,1.62
10/05/2016,769.36,2424,1827,206.15,279.13,272.98,4.38,3,2,0.95,2.06,2.06
11/05/2016,771.11,2425,1830,206.56,279.46,273.3,1.75,1,3,0.41,0.33,0.32
12/05/2016,774.69,2427,1832,207.24,280.94,274.76,3.58,2,2,0.68,1.48,1.46
13/05/2016,782.09,2431,1835,209.47,283.5,277.27,7.4,4,3,2.23,2.56,2.51
14/05/2016,790.55,2439,1839,212.43,285.83,279.54,8.46,8,4,2.96,2.33,2.27
15/05/2016,798.66,2452,1846,213.72,287.51,281.14,8.11,13,7,1.29,1.68,1.6
16/05/2016,806.35,2463,1852,215.68,288.85,282.43,7.69,11,6,1.96,1.34,1.29
17/05/2016,814.7,2473,1857,218.63,290.6,284.12,8.35,10,5,2.95,1.75,1.69
18/05/2016,819.17,2483,1863,219.19,291.61,285.11,4.47,10,6,0.56,1.01,0.99
19/05/2016,822.97,2491,1870,219.54,292.53,286.01,3.8,8,7,0.35,0.92,0.9
20/05/2016,828.14,2500,1875,220.23,293.83,287.29,5.17,9,5,0.69,1.3,1.28
21/05/2016,834.36,2510,1882,221.25,296.11,289.38,6.22,10,7,1.02,2.28,2.09
22/05/2016,837.49,2528,1898,221.4,296.23,289.5,3.13,18,16,0.15,0.12,0.12
23/05/2016,843.3,2537,1903,222.06,297.8,291.03,5.81,9,5,0.66,1.57,1.53